[[{"header":{"parameterUnit":"m.s-1","parameterCategory":1,"la1":30.2991,"la2":30.254,"lo1":-89.0895,"lo2":-89.0444,"dy":0.0017,"dx":0.0017,"nx":28,"ny":28,"refTime":"2025-11-05T09:00:00:Z","depth":0,"parameterNumber":2,"parameterNumberName":"U-component_of_WINDS"},"data":[0,0,0,0,0,0,0,0,0,0,0,0,0,0,0,0,0,0,0,0,0,0,0,0,0,0,0,0,0,0,0,0,0,0,0,0,0,0,0,0,0,0,0,0,0,0,0,0,0,0,0,0,0,0,0,0,0,0,-2.3315,-2.3316,0,-2.3407,-2.3408,-2.3409,-2.3362,-2.3359,-2.3357,-2.3355,-2.3448,-2.3453,-2.3458,0,0,0,0,0,0,0,0,0,0,0,0,0,-2.31,-2.3105,-2.3315,-2.3317,-2.3318,-2.3406,-2.3408,-2.3409,-2.3362,-2.3359,-2.3356,-2.3354,-2.3447,-2.3452,-2.3458,0,0,0,0,0,0,0,0,0,0,0,0,0,-2.3193,-2.3106,-2.3315,-2.3305,-2.3305,-2.3406,-2.3408,-2.3409,-2.3363,-2.3359,-2.3356,-2.3352,-2.3445,-2.3452,-2.3459,-2.3575,0,0,-2.3481,-2.3484,0,0,0,0,0,0,0,0,-2.3188,-2.3201,-2.3305,-2.3306,-2.3306,-2.3369,-2.3366,-2.3465,-2.3364,-2.3341,-2.3355,-2.335,-2.3425,-2.3433,-2.3459,-2.358,-2.3584,-2.3481,-2.3486,-2.3489,-2.3491,0,0,0,0,0,0,0,-2.3181,-2.3197,-2.3351,-2.3307,-2.3307,-2.3296,-2.3305,-2.3385,-2.3402,-2.3343,-2.3339,-2.3351,-2.3424,-2.3452,-2.346,-2.3585,-2.3481,-2.3487,-2.3492,-2.3495,-2.3807,-2.3811,0,0,0,0,0,0,-2.3175,-2.3192,-2.3349,-2.3354,-2.3237,-2.3303,-2.3313,-2.3353,-2.3401,-2.3405,-2.3354,-2.3348,-2.3441,-2.3452,-2.3464,-2.3605,-2.3489,-2.3495,-2.3499,-2.3803,-2.3808,-2.3813,0,0,0,0,0,0,-2.3171,-2.319,-2.3345,-2.3272,-2.3291,-2.331,-2.3355,-2.3356,-2.3384,-2.341,-2.3412,-2.3379,-2.3439,-2.3453,-2.3548,-2.3607,-2.3498,-2.3505,-2.3799,-2.3805,-2.381,-2.3887,0,0,0,0,0,0,-2.3165,-2.3189,-2.3233,-2.3273,-2.3295,-2.3428,-2.3359,-2.3361,-2.3396,-2.339,-2.3434,-2.3438,-2.3437,-2.3538,-2.3555,-2.3615,-2.3511,-2.3793,-2.3801,-2.3808,-2.3879,-2.3895,-2.3908,0,0,0,0,0,-2.3158,-2.3251,-2.3236,-2.3255,-2.3351,-2.3432,-2.3444,-2.3442,-2.3401,-2.3446,-2.3463,-2.3436,-2.3597,-2.3548,-2.3567,-2.363,-2.379,-2.3799,-2.3808,-2.3873,-2.3892,-2.3908,0,0,0,0,0,0,-2.3218,-2.3256,-2.324,-2.3349,-2.3388,-2.3424,-2.3481,-2.3462,-2.3513,-2.3505,-2.35,-2.351,-2.3609,-2.3628,-2.3573,-2.3745,-2.3687,-2.37,-2.373,-2.3748,-2.3762,-2.3757,-2.3516,0,0,0,0,0,-2.3244,-2.3306,-2.3336,-2.3429,-2.3449,-2.3462,-2.3497,-2.3492,-2.3531,-2.3548,-2.3571,-2.3611,-2.367,-2.3709,-2.3765,-2.388,-2.389,-2.3933,-2.3947,-2.3959,-2.3972,-2.4035,-2.4055,-2.3842,-2.3842,-2.3842,0,0,-2.3298,-2.3327,-2.3366,-2.3442,-2.3472,-2.3536,-2.3476,-2.3547,-2.3595,-2.3558,-2.365,-2.3668,-2.3712,-2.3817,-2.3865,-2.3837,-2.4032,-2.3971,-2.398,-2.3986,-2.4046,-2.4066,-2.4084,-2.3848,-2.3847,-2.3846,0,0,-2.3431,-2.3458,-2.354,-2.357,-2.3615,-2.3622,-2.3642,-2.3681,-2.3692,-2.3783,-2.3757,-2.3814,-2.3916,-2.3949,-2.3979,-2.4123,-2.4101,-2.4141,-2.4217,-2.4279,-2.4296,-2.4311,-2.4364,-2.4383,-2.4152,-2.4153,-2.4153,0,-2.3494,-2.359,-2.3584,-2.3658,-2.3692,-2.3661,-2.3743,-2.3773,-2.3834,-2.3859,-2.3825,-2.3953,-2.398,-2.4094,-2.4129,-2.4153,-2.4176,-2.4137,-2.4294,-2.4309,-2.4323,-2.4373,-2.4393,-2.4157,-2.4157,-2.4156,-2.4156,0,-2.3666,-2.3733,-2.3793,-2.3853,-2.3894,-2.3972,-2.3977,-2.4019,-2.401,-2.4021,-2.4114,-2.4145,-2.4207,-2.4233,-2.4225,-2.4346,-2.4327,-2.4294,-2.4236,-2.4348,-2.4396,-2.4415,-2.4164,-2.4162,-2.4161,-2.416,0,0,-2.3842,-2.3896,-2.3919,-2.3946,-2.3992,-2.4044,-2.412,-2.4181,-2.4218,-2.426,-2.4324,-2.4411,-2.4381,-2.4415,-2.4409,-2.4463,-2.4577,-2.4423,-2.4424,-2.4453,-2.4715,-2.4741,-2.4764,-2.4562,-2.4565,-2.4568,-2.4712,0,-2.398,-2.4113,-2.411,-2.4234,-2.4297,-2.4267,-2.4333,-2.4368,-2.438,-2.4435,-2.4447,-2.451,-2.4464,-2.4485,-2.4536,-2.4553,-2.463,-2.4542,-2.4623,-2.4626,-2.4616,-2.4788,-2.4817,-2.4951,-2.473,-2.4733,-2.4735,0,-2.416,-2.4208,-2.4339,-2.4376,-2.4402,-2.4462,-2.4518,-2.457,-2.4609,-2.4614,-2.4652,-2.4637,-2.4714,-2.4652,-2.4759,-2.4699,-2.4731,-2.4744,-2.4749,-2.4759,-2.469,-2.4806,-2.4994,-2.5015,-2.4764,-2.4762,-2.476,0,-2.4278,-2.4376,-2.4467,-2.449,-2.4536,-2.4579,-2.4599,-2.4635,-2.4672,-2.472,-2.4744,-2.48,-2.4832,-2.4875,-2.4877,-2.4831,-2.4985,-2.4922,-2.4993,-2.4993,-2.5029,-2.5028,-2.5228,-2.5046,-2.5045,-2.5045,-2.5044,0,-2.4434,-2.4516,-2.4521,-2.4577,-2.4668,-2.4662,-2.4752,-2.4768,-2.48,-2.4859,-2.4835,-2.4892,-2.4889,-2.4945,-2.4946,-2.5036,-2.5049,-2.5056,-2.5056,-2.506,-2.506,-2.5084,-2.5076,-2.505,-2.5049,-2.5048,-2.5047,0,-2.4583,-2.4589,-2.4687,-2.4722,-2.4732,-2.4798,-2.4827,-2.4881,-2.4889,-2.4964,-2.4982,-2.4996,-2.5061,-2.5066,-2.5142,-2.5142,-2.5252,-2.524,-2.5239,-2.5238,-2.5309,-2.5303,-2.5534,-2.5565,-2.536,-2.5362,-2.5363,0,-2.4684,-2.4747,-2.4787,-2.4825,-2.4849,-2.491,-2.4947,-2.4943,-2.4983,-2.5032,-2.508,-2.5143,-2.5194,-2.53,-2.5317,-2.5375,-2.5366,-2.5443,-2.5375,-2.5378,-2.5371,-2.5368,-2.5375,-2.5458,-2.546,-2.5462,-2.5463,0,-2.4864,-2.4863,-2.4918,-2.4974,-2.5019,-2.5063,-2.5104,-2.5136,-2.5137,-2.5182,-2.5249,-2.5289,-2.5366,-2.5429,-2.5486,-2.5507,-2.5487,-2.5484,-2.5504,-2.551,-2.5508,-2.5513,-2.5278,-2.5479,-2.5478,-2.5477,-2.5476,-2.5475,-2.4993,-2.5048,-2.5085,-2.5147,-2.5177,-2.5215,-2.5268,-2.5283,-2.5338,-2.5401,-2.5394,-2.5469,-2.5506,-2.558,-2.5606,-2.5664,-2.5638,-2.5666,-2.5674,-2.5682,-2.5691,-2.5496,-2.5674,-2.5673,-2.5673,-2.5673,-2.5672,0,-2.5174,-2.5196,-2.5253,-2.5311,-2.5359,-2.5333,-2.5377,-2.542,-2.5486,-2.5522,-2.5572,-2.5649,-2.571,-2.5732,-2.5791,-2.5834,-2.5826,-2.585,-2.5849,-2.5854,-2.5709,-2.5687,-2.5856,-2.5856,-2.5856,-2.5856,-2.5856,-2.5856,-2.5274,-2.5365,-2.5369,-2.5474,-2.5495,-2.5568,-2.5596,-2.5631,-2.5661,-2.5748,-2.5798,-2.5811,-2.5842,-2.5904,-2.5959,-2.5963,-2.5988,-2.6017,-2.6018,-2.5882,-2.5864,-2.5847,-2.5826,-2.6021,-2.6022,-2.6158,-2.616,-2.6161]},{"header":{"parameterUnit":"m.s-1","parameterCategory":1,"la1":30.2991,"la2":30.254,"lo1":-89.0895,"lo2":-89.0444,"dy":0.0017,"dx":0.0017,"nx":28,"ny":28,"refTime":"2025-11-05T09:00:00:Z","depth":0,"parameterNumber":3,"parameterNumberName":"V-component_of_WINDS"},"data":[0,0,0,0,0,0,0,0,0,0,0,0,0,0,0,0,0,0,0,0,0,0,0,0,0,0,0,0,0,0,0,0,0,0,0,0,0,0,0,0,0,0,0,0,0,0,0,0,0,0,0,0,0,0,0,0,0,0,-4.0829,-4.0829,0,-4.0867,-4.0867,-4.0868,-4.0814,-4.0812,-4.0811,-4.0809,-4.0845,-4.0847,-4.085,0,0,0,0,0,0,0,0,0,0,0,0,0,-4.0707,-4.0709,-4.0829,-4.0829,-4.083,-4.0867,-4.0867,-4.0868,-4.0815,-4.0812,-4.081,-4.0808,-4.0844,-4.0847,-4.085,0,0,0,0,0,0,0,0,0,0,0,0,0,-4.0754,-4.071,-4.0829,-4.0808,-4.0806,-4.0867,-4.0867,-4.0868,-4.0815,-4.0812,-4.081,-4.0807,-4.0843,-4.0847,-4.0851,-4.0932,0,0,-4.0863,-4.0865,0,0,0,0,0,0,0,0,-4.0751,-4.0758,-4.0811,-4.081,-4.0808,-4.0833,-4.0837,-4.0889,-4.0816,-4.0812,-4.0809,-4.0806,-4.0843,-4.0847,-4.086,-4.0934,-4.0935,-4.0863,-4.0866,-4.0868,-4.0869,0,0,0,0,0,0,0,-4.0748,-4.0756,-4.0844,-4.0811,-4.081,-4.0795,-4.0799,-4.0847,-4.0843,-4.0812,-4.0808,-4.0814,-4.0842,-4.0856,-4.086,-4.0936,-4.0863,-4.0867,-4.0869,-4.0871,-4.1076,-4.1079,0,0,0,0,0,0,-4.0748,-4.0754,-4.0843,-4.0845,-4.0772,-4.08,-4.0804,-4.0828,-4.0842,-4.0841,-4.0816,-4.0811,-4.0851,-4.0856,-4.0861,-4.0956,-4.0868,-4.0871,-4.0874,-4.1073,-4.1077,-4.108,0,0,0,0,0,0,-4.0745,-4.0756,-4.0841,-4.0798,-4.0808,-4.0805,-4.0832,-4.083,-4.0844,-4.0845,-4.0844,-4.0832,-4.0849,-4.0856,-4.0915,-4.0957,-4.0873,-4.0877,-4.107,-4.1074,-4.1079,-4.1148,0,0,0,0,0,0,-4.0742,-4.0756,-4.0788,-4.08,-4.0811,-4.0895,-4.0835,-4.0833,-4.0852,-4.0846,-4.086,-4.0859,-4.0847,-4.0909,-4.0919,-4.0961,-4.088,-4.1066,-4.1072,-4.1077,-4.1142,-4.1155,-4.1165,0,0,0,0,0,-4.0738,-4.0805,-4.079,-4.0801,-4.0851,-4.0898,-4.0904,-4.0889,-4.0856,-4.0887,-4.0887,-4.0859,-4.0951,-4.0915,-4.0926,-4.097,-4.1063,-4.107,-4.1077,-4.1137,-4.1152,-4.1165,0,0,0,0,0,0,-4.0798,-4.0807,-4.0789,-4.0863,-4.088,-4.0889,-4.0928,-4.0906,-4.0933,-4.0926,-4.0905,-4.0909,-4.0972,-4.0977,-4.0937,-4.1049,-4.1001,-4.101,-4.1043,-4.1058,-4.1069,-4.1066,-4.0883,0,0,0,0,0,-4.082,-4.0858,-4.0864,-4.0928,-4.0938,-4.0932,-4.0951,-4.0939,-4.0955,-4.0962,-4.0966,-4.0982,-4.1015,-4.1037,-4.1066,-4.1142,-4.1144,-4.1178,-4.1189,-4.1199,-4.1207,-4.1246,-4.1261,-4.1103,-4.1102,-4.1102,0,0,-4.0865,-4.0875,-4.09,-4.094,-4.0952,-4.0991,-4.0938,-4.0982,-4.101,-4.0968,-4.1024,-4.1028,-4.1044,-4.1112,-4.1142,-4.1118,-4.1251,-4.1208,-4.1215,-4.1218,-4.1254,-4.1269,-4.1283,-4.1107,-4.1106,-4.1106,0,0,-4.0968,-4.098,-4.1034,-4.1047,-4.1066,-4.1061,-4.1074,-4.1086,-4.1087,-4.1143,-4.1112,-4.1144,-4.1201,-4.1214,-4.1228,-4.1334,-4.1308,-4.1344,-4.1404,-4.1442,-4.1455,-4.1466,-4.1502,-4.1516,-4.1352,-4.1352,-4.1352,0,-4.1022,-4.1081,-4.1065,-4.1111,-4.1128,-4.1093,-4.1147,-4.1159,-4.1187,-4.1199,-4.1172,-4.1242,-4.125,-4.132,-4.1345,-4.1358,-4.1371,-4.1342,-4.1455,-4.1465,-4.1475,-4.151,-4.1524,-4.1356,-4.1356,-4.1355,-4.1355,0,-4.1146,-4.1187,-4.1228,-4.1256,-4.1278,-4.1328,-4.1318,-4.1342,-4.1327,-4.1324,-4.1381,-4.139,-4.142,-4.1436,-4.1422,-4.1503,-4.1487,-4.1458,-4.141,-4.1495,-4.1527,-4.154,-4.1362,-4.1361,-4.136,-4.1359,0,0,-4.1288,-4.1305,-4.1321,-4.1332,-4.1349,-4.138,-4.1427,-4.1458,-4.1478,-4.1498,-4.1536,-4.1584,-4.1557,-4.1572,-4.1559,-4.1593,-4.1674,-4.1559,-4.1559,-4.1579,-4.1763,-4.1784,-4.18,-4.1658,-4.166,-4.1662,-4.1761,0,-4.139,-4.1473,-4.1459,-4.1538,-4.1575,-4.1541,-4.1581,-4.1596,-4.1594,-4.1624,-4.1622,-4.1656,-4.1618,-4.1627,-4.1659,-4.1658,-4.1711,-4.165,-4.1691,-4.1693,-4.1688,-4.1817,-4.184,-4.1933,-4.1774,-4.1776,-4.1777,0,-4.152,-4.1545,-4.1628,-4.1638,-4.1653,-4.169,-4.1716,-4.1745,-4.176,-4.1756,-4.1774,-4.1753,-4.1799,-4.175,-4.1811,-4.1771,-4.1786,-4.1788,-4.1791,-4.1794,-4.174,-4.1822,-4.1963,-4.1977,-4.1797,-4.1796,-4.1794,0,-4.1614,-4.1668,-4.1725,-4.1735,-4.1749,-4.1776,-4.1782,-4.1794,-4.1813,-4.1835,-4.1847,-4.1874,-4.1888,-4.1909,-4.1896,-4.1862,-4.1959,-4.191,-4.1957,-4.1957,-4.1978,-4.1977,-4.2122,-4.199,-4.199,-4.1989,-4.1989,0,-4.1729,-4.1781,-4.1767,-4.1802,-4.1858,-4.1841,-4.1897,-4.1899,-4.191,-4.1943,-4.1915,-4.1947,-4.1929,-4.1958,-4.1948,-4.2,-4.2007,-4.2004,-4.2001,-4.2007,-4.2007,-4.2016,-4.2009,-4.1993,-4.1992,-4.1992,-4.1991,0,-4.1844,-4.1837,-4.1896,-4.1904,-4.1907,-4.1948,-4.1954,-4.1985,-4.1981,-4.2024,-4.2033,-4.2026,-4.206,-4.2049,-4.2085,-4.2078,-4.2144,-4.2132,-4.2139,-4.2136,-4.2183,-4.2178,-4.2339,-4.2358,-4.2214,-4.2215,-4.2216,0,-4.1918,-4.1957,-4.1969,-4.1989,-4.1998,-4.2032,-4.2051,-4.2034,-4.2055,-4.2074,-4.2103,-4.2134,-4.2158,-4.2213,-4.2211,-4.2238,-4.2226,-4.2281,-4.223,-4.2234,-4.2226,-4.2223,-4.2227,-4.2291,-4.2292,-4.2294,-4.2295,0,-4.2049,-4.2043,-4.2072,-4.2099,-4.2122,-4.2143,-4.216,-4.2179,-4.2163,-4.2188,-4.2222,-4.224,-4.2277,-4.2308,-4.2332,-4.2337,-4.2313,-4.2311,-4.2323,-4.2328,-4.233,-4.2329,-4.2166,-4.2307,-4.2306,-4.2305,-4.2304,-4.2304,-4.2144,-4.2177,-4.219,-4.2223,-4.2234,-4.2251,-4.2281,-4.2281,-4.2309,-4.2338,-4.2326,-4.2365,-4.2377,-4.2407,-4.2416,-4.2445,-4.2424,-4.2442,-4.2446,-4.245,-4.2456,-4.2326,-4.2449,-4.2449,-4.2449,-4.2448,-4.2448,0,-4.2273,-4.228,-4.231,-4.2335,-4.236,-4.2336,-4.2354,-4.2376,-4.2411,-4.2425,-4.2449,-4.2487,-4.2517,-4.2517,-4.2544,-4.2567,-4.2557,-4.2575,-4.2572,-4.2574,-4.2474,-4.246,-4.2582,-4.2582,-4.2582,-4.2582,-4.2582,-4.2582,-4.2343,-4.2397,-4.2392,-4.245,-4.2456,-4.2494,-4.2507,-4.2521,-4.2532,-4.2576,-4.2601,-4.2601,-4.2608,-4.2635,-4.2661,-4.266,-4.267,-4.2693,-4.2688,-4.2594,-4.2581,-4.2568,-4.2555,-4.2695,-4.2695,-4.2785,-4.2785,-4.2786]}]]